GFSFLT1_850_dewp_024.txt.gz
Dewpoint
3 3 3 2 3 4 6 9 10 10 8 7 4 3 3 2 2 2 2 3 3 4 0 -0 -0 -0 -0 -1 -0 1 2 1
3 3 3 4 6 8 9 9 9 7 5 3 2 2 1 1 1 3 3 3 3 1 1 1 1 1 1 1 -1 -4 -0 1
3 4 4 4 4 3 4 4 3 2 2 1 1 2 1 1 1 3 2 2 2 2 2 2 1 1 1 -1 -2 1 2 2
2 4 5 4 3 3 3 3 3 1 -1 2 1 0 1 1 1 1 2 3 3 1 0 -1 -2 -2 -2 -2 -4 -1 1 1
1 3 4 4 4 4 3 3 3 3 1 0 1 3 3 3 3 3 2 1 -0 -1 -2 -2 -2 -2 -1 -2 2 2 3 2
2 3 4 5 4 5 4 3 2 3 3 4 4 4 2 1 1 1 0 -0 -1 -2 -2 -2 -2 -2 -1 2 2 3 2 0
1 2 3 4 4 4 4 3 3 3 3 2 2 2 2 1 1 1 1 0 -1 -3 -4 -3 -3 -0 1 1 1 0 -1 -2
1 1 2 2 3 3 4 4 4 3 2 2 3 2 3 2 2 1 1 -1 -2 -3 -3 -1 0 0 -1 -2 -2 -2 -2 -3
1 1 1 2 2 2 2 3 3 2 2 2 3 3 2 2 1 1 -1 -2 -3 -2 -0 0 -1 -2 -2 -1 -1 -1 -2 -2
1 1 1 1 2 2 2 3 2 1 2 1 1 1 1 -0 -0 -1 -3 -3 -3 -2 -2 -3 -1 -1 -1 -1 -2 -2 -3 -3
0 -0 -0 1 2 2 2 1 1 1 1 1 -0 -1 -1 -1 -2 -3 -3 -2 -3 -3 -2 -2 -2 -1 -1 -3 -3 -4 -4 -4
-0 0 1 1 1 1 1 0 0 -0 -1 -1 -2 -3 -3 -2 -2 -2 -2 -2 -4 -3 -3 -3 -3 -2 -3 -3 -4 -5 -5 -6
0 0 1 1 0 0 0 -1 -1 -1 -2 -3 -4 -4 -3 -2 -1 -4 -3 -4 -3 -3 -4 -3 -5 -6 -5 -5 -5 -7 -7 -8
-0 0 1 0 -0 -0 -2 -2 -2 -2 -4 -5 -4 -4 -3 -3 -4 -4 -3 -4 -5 -5 -6 -8 -8 -9 -9 -9 -9 -10 -9 -9
-0 1 0 0 -1 -3 -4 -3 -3 -4 -5 -5 -5 -5 -4 -4 -4 -3 -3 -4 -6 -8 -9 -10 -10 -10 -10 -10 -9 -9 -9 -11
1 1 1 -1 -4 -5 -4 -3 -4 -4 -5 -6 -5 -6 -4 -4 -5 -4 -5 -6 -9 -10 -10 -10 -10 -10 -10 -10 -10 -10 -10 -11
1 0 -1 -3 -4 -5 -4 -3 -5 -5 -6 -6 -6 -6 -4 -5 -5 -5 -7 -10 -10 -10 -10 -10 -10 -10 -9 -10 -10 -9 -9 -9
1 -0 -2 -4 -5 -6 -7 -5 -5 -4 -5 -6 -6 -5 -4 -5 -5 -6 -10 -10 -10 -10 -10 -10 -9 -9 -9 -9 -9 -8 -8 -10
-1 -3 -5 -5 -7 -8 -7 -6 -4 -5 -5 -5 -6 -6 -4 -5 -5 -7 -10 -9 -10 -10 -9 -9 -9 -10 -10 -8 -9 -10 -11 -12

GFSFLT1_850_dewp_027.txt.gz
Dewpoint
3 3 3 3 4 5 7 9 10 9 8 7 5 3 3 3 3 2 3 3 3 2 1 1 1 2 1 1 1 1 1 1
4 4 4 4 5 4 5 7 8 8 6 4 2 3 2 2 1 2 3 2 2 2 2 2 2 1 -1 -1 -2 -4 -5 -4
4 5 4 4 6 7 7 7 5 2 2 1 1 1 0 2 2 3 2 3 3 3 2 -0 -1 -2 -2 -2 -3 -2 -4 -4
3 3 3 2 2 2 2 1 0 1 -0 1 2 0 0 2 2 2 3 2 2 1 -1 -2 -2 -2 -2 -2 -2 -2 -2 2
3 3 3 2 3 2 3 2 2 2 2 2 2 2 2 2 1 0 -0 -0 0 -0 -1 -1 -3 -6 -3 -3 -1 0 2 2
3 2 3 3 3 2 2 3 3 3 3 3 2 2 2 2 2 2 1 1 1 0 -0 -8 -10 -6 -4 -1 0 -1 -1 -1
2 2 3 3 3 3 3 3 3 3 2 2 3 2 2 3 2 2 1 1 0 -0 -8 -4 -2 -1 -0 -2 -2 -3 -3 -3
2 2 2 3 3 3 3 3 3 3 3 2 2 3 2 2 2 0 0 -0 -2 -8 -4 -1 -1 -2 -3 -4 -3 -2 -1 -3
1 1 1 2 2 2 2 2 3 2 1 1 1 1 1 1 -0 -1 -1 -4 -4 -3 -2 -3 -3 -3 -2 -1 -1 -2 -2 -4
1 1 1 1 1 1 2 2 2 1 1 1 1 -0 -2 -2 -3 -3 -4 -3 -3 -2 -3 -3 -3 -2 -2 -3 -2 -2 -3 -4
0 0 0 1 1 1 1 1 1 0 0 -0 -1 -2 -3 -4 -4 -2 -2 -2 -3 -5 -4 -4 -4 -4 -4 -4 -4 -5 -5 -9
0 0 1 1 0 0 1 0 -0 -1 -1 -1 -2 -4 -5 -4 -3 -2 -2 -9 -8 -5 -4 -5 -5 -7 -7 -7 -6 -6 -7 -8
-0 0 1 0 0 -0 -1 -2 -2 -2 -2 -3 -4 -5 -5 -5 -5 -4 -5 -8 -4 -4 -5 -7 -8 -10 -10 -10 -9 -9 -9 -9
0 1 1 -1 -1 -1 -3 -4 -4 -3 -3 -4 -5 -5 -6 -5 -5 -5 -6 -7 -5 -5 -7 -8 -10 -10 -10 -10 -10 -10 -9 -9
2 1 -0 -3 -3 -4 -5 -5 -3 -3 -3 -5 -5 -6 -6 -5 -5 -5 -6 -8 -6 -6 -9 -10 -11 -10 -10 -10 -10 -10 -10 -10
2 0 -2 -2 -3 -4 -4 -5 -5 -5 -5 -4 -4 -5 -5 -5 -4 -3 -5 -7 -7 -10 -10 -11 -11 -10 -10 -10 -10 -10 -10 -9
0 -0 -1 -3 -4 -5 -6 -7 -6 -5 -5 -4 -5 -5 -4 -3 -2 -4 -4 -7 -10 -10 -10 -11 -10 -10 -10 -10 -10 -10 -10 -9
-0 -2 -3 -5 -5 -6 -6 -6 -7 -8 -9 -8 -4 -3 -3 -3 -3 -3 -4 -7 -10 -10 -11 -9 -9 -9 -9 -9 -9 -11 -11 -10
-4 -5 -6 -6 -6 -6 -6 -7 -8 -9 -9 -8 -8 -6 -5 -3 -3 -3 -3 -8 -8 -10 -9 -9 -8 -8 -8 -10 -11 -9 -10 -12

GFSFLT1_850_dewp_030.txt.gz
Dewpoint
6 6 7 7 8 9 9 9 7 9 8 7 6 6 5 4 3 4 4 3 3 2 2 2 2 2 2 2 -1 -3 -5 -5
7 7 8 9 9 9 9 9 9 8 8 7 5 3 2 2 3 3 3 3 2 3 3 2 2 1 -1 -2 -2 -3 -5 -6
5 5 5 5 6 4 3 2 2 2 2 2 2 2 1 3 3 3 3 3 2 2 1 0 -1 -2 -2 -3 -4 -6 -4 -4
2 2 3 2 2 1 -0 0 2 2 1 1 1 1 1 1 1 1 1 1 1 1 0 -0 -0 -1 -3 -8 -10 -7 -2 -0
1 1 1 -0 1 1 0 1 2 2 2 2 0 -1 1 1 1 2 2 2 1 1 1 -0 -3 -12 -10 -5 -1 -1 -2 -2
2 2 2 2 2 2 2 2 2 2 3 2 2 2 2 2 2 2 2 1 0 0 -1 -9 -15 -10 -3 -1 -2 -3 -4 -2
2 3 2 2 3 3 3 3 3 3 3 3 2 2 2 3 3 2 1 0 -0 -3 -11 -12 -7 -6 -4 -4 -3 -2 -2 -2
2 2 2 3 3 3 3 3 3 3 3 2 2 2 1 1 1 0 -1 -3 -6 -7 -7 -4 -3 -4 -3 -3 -2 -3 -3 -3
2 2 3 3 2 2 2 2 2 2 2 1 1 1 0 -1 -1 -3 -4 -4 -3 -3 -2 -4 -4 -4 -4 -4 -3 -3 -3 -5
1 2 2 1 1 1 1 1 1 1 1 0 0 -1 -1 -1 -4 -7 -5 -3 -2 -7 -10 -5 -6 -5 -5 -6 -6 -6 -6 -6
1 1 1 1 1 1 1 0 0 -0 -0 -0 -1 -1 -2 -4 -7 -8 -8 -7 -6 -11 -11 -9 -7 -6 -7 -9 -9 -9 -9 -8
1 1 1 0 0 -0 -1 -1 -1 -1 -2 -3 -3 -3 -3 -5 -5 -7 -8 -6 -6 -10 -8 -6 -6 -7 -9 -10 -10 -9 -9 -10
1 1 1 0 -1 -2 -2 -3 -4 -4 -3 -3 -3 -4 -5 -5 -5 -6 -5 -5 -5 -10 -7 -5 -7 -8 -10 -10 -10 -10 -10 -9
1 1 1 1 -2 -3 -4 -5 -5 -4 -5 -5 -4 -5 -5 -4 -5 -5 -5 -4 -3 -4 -6 -6 -9 -10 -11 -11 -11 -10 -10 -10
1 -1 -3 -3 -3 -4 -4 -5 -7 -6 -5 -4 -5 -4 -4 -4 -3 -4 -3 -2 -3 -5 -6 -9 -10 -11 -11 -12 -10 -10 -10 -10
-1 -2 -2 -3 -4 -5 -6 -6 -7 -7 -7 -7 -7 -7 -7 -8 -4 -3 -2 -2 -3 -5 -8 -10 -11 -11 -10 -9 -9 -9 -9 -9
-3 -4 -5 -5 -5 -5 -6 -5 -5 -5 -7 -9 -9 -9 -10 -10 -9 -7 -7 -4 -4 -6 -8 -10 -11 -9 -9 -9 -8 -9 -11 -11
-4 -5 -6 -7 -5 -6 -8 -9 -9 -10 -10 -10 -10 -10 -10 -10 -9 -8 -9 -6 -4 -7 -6 -8 -9 -8 -8 -9 -10 -11 -11 -11
-7 -10 -10 -11 -11 -11 -11 -11 -10 -10 -10 -10 -10 -9 -9 -8 -9 -6 -4 -3 -4 -6 -6 -7 -8 -9 -10 -11 -12 -11 -11 -11

GFSFLT1_850_dewp_033.txt.gz
Dewpoint
6 5 5 6 6 8 9 9 8 8 8 8 6 6 6 5 4 5 5 5 4 3 3 2 2 2 2 0 -1 -2 -2 -3
9 9 8 9 9 8 9 9 8 9 8 7 6 5 3 2 2 3 3 3 3 3 2 1 0 -0 -0 -1 -1 -2 -3 -6
7 8 9 9 7 6 4 4 4 5 3 2 2 2 2 2 2 2 1 0 1 1 1 1 1 1 -2 -1 -3 -8 -9 -5
4 5 5 4 2 0 0 0 0 1 0 1 1 0 -1 -1 -1 0 -0 1 1 1 1 1 0 -2 -14 -13 -10 -5 -3 -4
2 1 1 1 1 2 1 1 1 2 1 1 0 0 1 1 1 2 2 2 2 1 -0 -3 -11 -16 -15 -11 -6 -4 -3 -3
2 2 2 2 2 2 3 3 3 3 3 2 3 2 2 2 2 2 2 2 0 -1 -6 -10 -11 -11 -9 -9 -6 -4 -2 -2
2 2 2 3 3 3 3 3 3 2 3 3 2 2 2 2 2 1 -0 -2 -4 -8 -10 -11 -12 -12 -9 -8 -6 -4 -2 -4
3 2 3 3 3 4 4 3 2 2 2 2 2 1 1 1 -0 -2 -7 -10 -11 -11 -9 -6 -15 -12 -9 -6 -5 -4 -6 -6
2 2 3 3 3 2 2 2 1 1 1 1 1 0 -0 -1 -3 -4 -6 -7 -9 -9 -5 -9 -12 -8 -9 -7 -7 -7 -8 -9
2 2 3 2 2 1 1 1 0 -0 -0 -0 -0 -1 -2 -3 -3 -6 -5 -5 -6 -5 -5 -6 -12 -9 -7 -7 -8 -9 -9 -9
2 1 1 1 1 0 -0 -1 -2 -2 -1 -2 -3 -3 -4 -4 -5 -5 -5 -5 -5 -5 -5 -8 -10 -7 -6 -8 -9 -10 -9 -9
1 1 0 0 -0 -1 -1 -2 -3 -4 -4 -4 -5 -4 -4 -5 -4 -5 -4 -4 -4 -4 -6 -5 -4 -5 -6 -8 -10 -11 -10 -10
1 1 1 0 -0 -2 -4 -4 -5 -5 -4 -5 -4 -4 -4 -4 -4 -4 -6 -5 -3 -4 -4 -3 -7 -5 -8 -10 -12 -14 -12 -11
1 0 -3 -3 -3 -3 -4 -4 -5 -5 -6 -7 -6 -5 -7 -7 -7 -10 -13 -13 -6 -4 -3 -4 -5 -7 -10 -11 -13 -11 -10 -10
-1 -3 -3 -3 -4 -4 -5 -6 -7 -7 -6 -6 -8 -9 -10 -10 -10 -12 -11 -10 -6 -5 -4 -4 -5 -8 -9 -11 -10 -9 -9 -9
-3 -4 -4 -4 -4 -5 -6 -6 -6 -7 -9 -11 -11 -11 -11 -10 -10 -9 -9 -10 -9 -5 -3 -6 -8 -7 -7 -9 -9 -8 -8 -9
-5 -4 -5 -6 -6 -6 -7 -9 -11 -12 -12 -11 -10 -10 -9 -8 -8 -8 -11 -6 -3 -4 -5 -8 -7 -6 -8 -8 -8 -10 -11 -11
-3 -5 -8 -8 -10 -11 -11 -12 -12 -12 -10 -10 -9 -8 -8 -8 -7 -10 -10 -8 -4 -4 -5 -6 -7 -7 -7 -9 -10 -12 -12 -12
-7 -10 -11 -11 -11 -11 -12 -13 -11 -11 -9 -9 -9 -9 -7 -7 -9 -10 -9 -7 -5 -5 -6 -6 -6 -7 -9 -10 -12 -14 -15 -17

GFSFLT1_850_dewp_036.txt.gz
Dewpoint
6 5 6 6 5 6 10 9 10 7 9 8 7 6 5 5 4 5 5 4 4 3 2 1 0 -0 -1 -1 -1 -5 -4 -4
8 8 7 8 9 9 10 9 8 9 7 5 6 6 2 1 1 0 1 1 -1 -1 -1 0 1 1 0 -0 -3 -10 -16 -14
10 10 11 10 9 7 5 5 4 3 2 2 1 0 -1 -2 -1 -1 -1 -0 0 1 1 1 1 -0 -2 -10 -20 -20 -18 -13
6 6 5 3 0 -0 -1 -1 -2 -2 -3 -4 -4 -2 -0 1 1 1 1 1 2 2 0 -1 -4 -12 -14 -16 -17 -17 -16 -13
3 2 0 0 1 1 1 1 0 0 1 1 2 1 1 1 1 2 2 2 -0 -7 -9 -12 -14 -13 -15 -16 -14 -11 -8 -5
0 1 2 2 2 1 2 2 2 3 3 3 3 2 1 2 2 2 1 -3 -8 -10 -12 -11 -10 -11 -15 -14 -11 -8 -5 -4
2 2 2 2 2 3 3 3 3 3 3 2 1 1 1 1 1 -1 -4 -6 -6 -6 -8 -8 -8 -8 -14 -13 -10 -6 -4 -5
3 2 3 3 3 4 4 3 3 2 1 1 1 1 0 -1 -2 -3 -5 -5 -5 -6 -6 -6 -6 -6 -10 -12 -9 -7 -8 -8
3 3 4 4 4 4 2 2 1 0 -0 -0 -0 -1 -3 -4 -4 -5 -5 -5 -5 -5 -5 -4 -5 -7 -10 -10 -8 -8 -8 -10
4 4 4 3 2 2 1 0 -0 -1 -1 -2 -4 -4 -5 -4 -5 -4 -4 -4 -4 -4 -5 -4 -5 -7 -7 -7 -6 -8 -9 -10
3 3 2 2 1 1 0 -1 -2 -2 -4 -4 -5 -6 -4 -4 -4 -4 -4 -4 -6 -6 -4 -4 -6 -5 -4 -4 -6 -8 -10 -10
2 1 1 0 0 0 -1 -3 -4 -4 -4 -4 -5 -5 -4 -4 -4 -5 -6 -8 -9 -10 -5 -4 -5 -3 -5 -6 -5 -10 -12 -12
1 0 0 0 -1 -3 -4 -4 -4 -5 -5 -4 -5 -5 -6 -8 -9 -10 -11 -11 -10 -11 -8 -5 -5 -4 -5 -5 -7 -10 -11 -10
1 -0 -2 -4 -4 -4 -4 -4 -5 -6 -6 -6 -8 -11 -12 -11 -11 -10 -10 -9 -10 -9 -6 -5 -3 -3 -4 -6 -7 -9 -9 -9
-1 -2 -4 -3 -3 -3 -5 -5 -6 -6 -8 -12 -15 -14 -12 -11 -10 -10 -9 -8 -11 -6 -4 -4 -4 -5 -6 -7 -7 -8 -8 -7
-2 -4 -4 -4 -4 -5 -5 -6 -9 -12 -14 -16 -11 -10 -9 -10 -11 -9 -8 -11 -11 -7 -5 -5 -6 -7 -7 -7 -7 -7 -7 -10
-4 -4 -4 -6 -7 -7 -10 -12 -14 -14 -13 -11 -10 -9 -10 -9 -8 -9 -10 -10 -9 -7 -6 -6 -6 -6 -7 -7 -7 -9 -10 -13
-4 -4 -7 -8 -11 -11 -11 -11 -12 -12 -12 -10 -9 -9 -8 -7 -8 -9 -10 -10 -10 -5 -5 -5 -6 -7 -7 -8 -9 -11 -13 -16
-4 -7 -10 -11 -11 -10 -10 -11 -11 -12 -10 -10 -9 -8 -7 -7 -9 -9 -10 -9 -5 -5 -6 -6 -7 -7 -8 -9 -11 -14 -17 -19

GFSFLT1_850_dewp_042.txt.gz
Dewpoint
8 5 5 7 8 8 6 7 9 9 9 8 6 7 5 4 1 0 -1 -0 0 0 1 1 -0 -2 -3 -8 -6 -4 -4 -3
8 6 6 7 7 7 8 8 9 9 8 7 6 5 1 -1 -0 -0 0 0 1 1 1 -1 -3 -3 -4 -3 -4 -5 -6 -3
10 10 11 11 11 10 9 10 7 4 5 4 4 1 -0 0 0 1 1 1 2 1 -2 -2 -4 -5 -4 -4 -4 -4 -6 -5
11 11 11 11 10 10 9 7 -1 2 3 2 1 -0 0 1 1 1 1 2 1 -1 -3 -6 -9 -4 -3 -2 -3 -3 -4 -5
8 7 8 8 8 7 5 4 3 -1 0 3 4 3 3 3 2 2 2 2 -0 -4 -6 -6 -4 -2 -1 -2 -4 -2 -3 -4
4 3 3 3 2 4 2 1 4 1 1 3 4 4 3 2 2 2 0 -1 -4 -6 -3 -2 -1 -1 -2 -1 -1 -2 -3 -3
2 2 3 3 1 1 4 4 2 2 3 3 3 2 3 2 1 -0 -2 -2 -3 -2 -1 -1 -1 -1 -2 -2 -2 -2 -2 -3
3 3 3 4 5 5 4 5 5 4 3 2 1 2 1 -1 -2 -3 -3 -4 -3 -3 -1 -1 -3 -3 -3 -3 -3 -3 -3 -3
3 3 3 4 5 5 5 5 4 2 1 0 -1 -1 -2 -3 -2 -2 -2 -2 -1 -1 -1 -2 -3 -4 -4 -3 -3 -3 -3 -3
3 4 4 5 5 6 5 4 3 -0 -1 -3 -5 -5 -6 -3 -4 -3 -1 -1 -2 -5 -5 -6 -6 -5 -4 -3 -3 -3 -3 -4
4 4 5 5 5 4 4 3 1 -2 -4 -5 -5 -4 -4 -6 -6 -2 -3 -6 -7 -7 -7 -7 -6 -5 -5 -4 -4 -5 -4 -4
4 5 5 4 3 2 1 -1 -3 -3 -4 -4 -4 -3 -6 -6 -6 -7 -7 -7 -7 -7 -7 -6 -5 -5 -4 -4 -3 -4 -4 -4
4 3 3 2 1 1 -0 -3 -2 -3 -4 -3 -4 -7 -8 -7 -8 -8 -6 -6 -6 -6 -6 -5 -5 -4 -5 -5 -4 -5 -5 -5
2 2 1 0 0 -1 -3 -3 -1 -3 -5 -6 -7 -7 -8 -8 -7 -6 -6 -6 -6 -6 -5 -4 -4 -3 -4 -5 -5 -4 -6 -6
2 1 0 -1 -2 -2 -3 -1 -5 -6 -8 -9 -8 -8 -8 -7 -6 -5 -5 -5 -5 -5 -5 -4 -3 -4 -4 -4 -6 -6 -6 -6
1 1 -0 -1 -2 -3 -3 -5 -6 -9 -9 -10 -9 -7 -7 -5 -5 -5 -5 -5 -5 -5 -5 -5 -6 -5 -6 -5 -5 -5 -6 -8
1 0 -1 -2 -3 -4 -6 -7 -9 -10 -10 -10 -8 -5 -5 -6 -6 -5 -5 -5 -5 -5 -5 -5 -5 -5 -7 -7 -7 -7 -8 -10
1 -1 -2 -4 -5 -7 -8 -9 -10 -12 -12 -9 -7 -10 -7 -6 -6 -6 -5 -5 -4 -6 -5 -6 -6 -6 -7 -7 -9 -9 -9 -11
0 -2 -4 -6 -7 -9 -7 -9 -11 -16 -11 -9 -7 -7 -6 -6 -6 -5 -5 -5 -6 -6 -6 -6 -6 -7 -8 -9 -10 -10 -9 -10